Regional Weather Roundup
Issued by NWS

Home | Current Version | Previous Version | Text Only | Print | Product List | Glossary On
Versions: 1 2 3 4 5 6 7 8 9 10 11 12 13 14 15 16 17 18 19 20 21 22 23 24 25 26 27 28 29 30 31 32 33 34 35 36 37 38 39 40 41 42 43 44 45 46 47 48 49 50
000
ASUS45 KABQ 042310
RWRNM
WEATHER ROUNDUP FOR NEW MEXICO
NATIONAL WEATHER SERVICE ALBUQUERQUE NM
400 PM MST WED MAR 04 2015

NOTE: "FAIR" MEANS FEW OR NO CLOUDS BELOW 12,000 FEET AGL WITH NO
       SIGNIFICANT WEATHER OR OBSTRUCTIONS TO VISION.

      THIS PRODUCT IS RELEASED AS TWO VERSIONS.  ONE VERSION NEAR
      THE TOP OF THE HOUR CONTAINING PRELIMINARY DATA FROM ALBUQUERQUE
      AND OTHER STATIONS.  A FINAL VERSION WITH ADDITIONAL DATA IS
      ISSUED ABOUT 10 MINUTES AFTER THE HOUR.

NMZ501-503-504-510>518-050000-
NORTHWEST PLATEAU/NORTHCENTRAL MOUNTAINS

CITY           SKY/WX    TMP DP  RH WIND       PRES   REMARKS
FARMINGTON     NOT AVBL
SANTA FE       NOT AVBL

$$
NMZ402-403-502-505>509-050000-
WESTCENTRAL MOUNTAINS/SOUTHWEST MOUNTAINS

CITY           SKY/WX    TMP DP  RH WIND       PRES   REMARKS
GALLUP         NOT AVBL

$$
NMZ407-409-411-412-050000-
SOUTHERN DESERTS

CITY           SKY/WX    TMP DP  RH WIND       PRES   REMARKS
DEMING         NOT AVBL
HOLLOMAN AFB   PTSUNNY   52  35  51 SW7       29.94S
T OR C         LGT RAIN  50  28  42 SW5       29.96R

$$
NMZ519>523-050000-
CENTRAL VALLEYS/CENTRAL HIGHLANDS

CITY           SKY/WX    TMP DP  RH WIND       PRES   REMARKS
ALBUQUERQUE    MOSUNNY   50  16  25 NW15G22   29.97R
DOUBLE EAGLE   MOSUNNY   46  14  27 NW17G24   29.97R
CLINES CORNERS LGT SNOW  22  20  92 SE14      29.98R FOG     WCI   9
BELEN          NOT AVBL
SOCORRO        NOT AVBL

$$
NMZ524>526-539-540-050000-
SOUTHCENTRAL MOUNTAINS

CITY           SKY/WX    TMP DP  RH WIND       PRES   REMARKS
RUIDOSO        NOT AVBL

$$
NMZ527>531-050000-
NORTHEAST HIGHLANDS/NORTHEAST PLAINS

CITY           SKY/WX    TMP DP  RH WIND       PRES   REMARKS
LAS VEGAS      LGT SNOW  19  15  84 E12       30.00R VSB 1   WCI   7
RATON          SNOW      21  18  88 SW12      30.00R VSB 1/2 WCI   9
CLAYTON        NOT AVBL

$$
NMZ532>537-050000-
EASTCENTRAL PLAINS

CITY           SKY/WX    TMP DP  RH WIND       PRES   REMARKS
CANNON AFB     NOT AVBL
CLOVIS AIRPORT NOT AVBL

$$
NMZ028-029-538-050000-
SOUTHEAST PLAINS

CITY           SKY/WX    TMP DP  RH WIND       PRES   REMARKS
ROSWELL        FLURRIES  30  26  85 N14       30.12R WCI  19
CARLSBAD       LGT SNOW  36  31  82 N22       30.07R WCI  25
HOBBS          LGT SNOW  28  28 100 N28G33    30.06R FOG     WCI  13


$$



USA.gov is the U.S. government's official web portal to all federal, state and local government web resources and services.